Weather History for New Castle, PA

Change the Weather History Date:

Saturday, June 8, 2013

  Actual Average Record
Temperature  
Mean Temperature 62 °F -  
Max Temperature 70 °F 79 °F 95 °F (1934)
Min Temperature 54 °F 53 °F 32 °F (1949)
Degree Days  
Heating Degree Days 3    
Growing Degree Days 12 (Base 50)    
Moisture  
Dew Point 54 °F    
Average Humidity 80    
Maximum Humidity 100    
Minimum Humidity 51    
Precipitation  
Precipitation 0.00 in - - ()
Sea Level Pressure  
Sea Level Pressure 30.02 in    
Wind  
Wind Speed 1 mph (West)    
Max Wind Speed 7 mph    
Max Gust Speed -    
Visibility 8 miles    
Events      
Averages and records for this station are not official NWS values.
T = Trace of Precipitation, MM = Missing Value Source: NWS Daily Summary

Daily Weather History Graph

Daily Weather History Graph

Search for Another Location

Airport:

Trip Planner

Search our weather history database for the weather conditions in past years. The results will help you decide how hot, cold, wet, or windy it might be!

Date:

Astronomy

Jun. 08, 2013 Rise Set
Actual Time 5:49 AM EDT 8:52 PM EDT
Civil Twilight 5:16 AM EDT 9:25 PM EDT
Nautical Twilight 4:33 AM EDT 10:08 PM EDT
Astronomical Twilight 3:43 AM EDT 10:58 PM EDT
Moon 5:56 AM EDT (6/8) 8:53 PM EDT (6/8)
Length of Visible Light 16h 09m
Length of Day
15h 03m
New Moon, 0% of the Moon is Illuminated
Jun 8
New Moon
Jun 16
First Quarter
Jun 23
Full
Jun 30
Last Quarter
Jul 8
New

Hourly Weather History & Observations

Time (EDT) Temp. Dew Point Humidity Pressure Visibility Wind Dir Wind Speed Gust Speed Precip Events Conditions
12:46 AM 55.4 °F 53.6 °F 94% 29.90 in 9.0 mi Calm Calm - N/A   Overcast
12:56 AM 55.9 °F 52.9 °F 89% 29.94 in 10.0 mi Calm Calm - N/A   Overcast
1:18 AM 55.4 °F 53.6 °F 94% 29.90 in 10.0 mi NW 5.8 mph - N/A   Overcast
1:56 AM 55.9 °F 52.9 °F 89% 29.95 in 8.0 mi Calm Calm - N/A   Overcast
2:56 AM 55.9 °F 52.9 °F 89% 29.94 in 8.0 mi Calm Calm - N/A   Overcast
3:31 AM 55.4 °F 53.6 °F 94% 29.90 in 7.0 mi Calm Calm - N/A   Overcast
3:43 AM 55.4 °F 53.6 °F 94% 29.91 in 7.0 mi Calm Calm - N/A   Overcast
3:56 AM 54.9 °F 54.0 °F 97% 29.95 in 6.0 mi Calm Calm - N/A   Overcast
4:08 AM 55.4 °F 53.6 °F 94% 29.91 in 7.0 mi Calm Calm - N/A   Overcast
4:56 AM 55.4 °F 53.6 °F 94% 29.92 in 6.0 mi Calm Calm - N/A   Overcast
5:56 AM 55.9 °F 54.0 °F 93% 29.97 in 5.0 mi Calm Calm - N/A   Overcast
6:56 AM 55.9 °F 54.0 °F 93% 30.01 in 3.0 mi Calm Calm - N/A   Overcast
7:29 AM 55.4 °F 55.4 °F 100% 29.98 in 4.0 mi Calm Calm - N/A   Overcast
7:56 AM 56.8 °F 54.9 °F 93% 30.02 in 4.0 mi Calm Calm - N/A   Mostly Cloudy
8:33 AM 57.2 °F 53.6 °F 88% 29.98 in 4.0 mi Calm Calm - N/A   Mostly Cloudy
8:56 AM 59.9 °F 54.9 °F 83% 30.03 in 5.0 mi Calm Calm - N/A   Haze
9:10 AM 60.8 °F 55.4 °F 82% 30.00 in 6.0 mi West 3.5 mph - N/A   Haze
9:20 AM 60.8 °F 53.6 °F 77% 30.00 in 6.0 mi WSW 4.6 mph - N/A   Haze
9:27 AM 60.8 °F 53.6 °F 77% 30.00 in 7.0 mi SW 4.6 mph - N/A   Overcast
9:33 AM 60.8 °F 53.6 °F 77% 30.00 in 7.0 mi WSW 5.8 mph - N/A   Overcast
9:40 AM 60.8 °F 53.6 °F 77% 30.00 in 8.0 mi West 3.5 mph - N/A   Overcast
9:56 AM 61.9 °F 54.0 °F 75% 30.04 in 9.0 mi Variable 3.5 mph - N/A   Mostly Cloudy
10:56 AM 61.9 °F 52.9 °F 72% 30.06 in 10.0 mi Calm Calm - N/A   Mostly Cloudy
11:18 AM 62.6 °F 53.6 °F 72% 30.02 in 10.0 mi Calm Calm - N/A   Overcast
11:45 AM 64.4 °F 53.6 °F 68% 30.02 in 10.0 mi Calm Calm - N/A   Mostly Cloudy
11:56 AM 64.9 °F 52.9 °F 65% 30.06 in 10.0 mi WSW 3.5 mph - N/A   Mostly Cloudy
12:56 PM 64.9 °F 54.0 °F 68% 30.07 in 10.0 mi Calm Calm - N/A   Overcast
1:56 PM 66.2 °F 53.6 °F 64% 30.04 in 10.0 mi West 6.9 mph - N/A   Mostly Cloudy
2:56 PM 68.0 °F 52.9 °F 58% 30.07 in 10.0 mi West 6.9 mph - N/A   Mostly Cloudy
3:56 PM 68.9 °F 52.0 °F 55% 30.07 in 10.0 mi WSW 4.6 mph - N/A   Mostly Cloudy
4:56 PM 70.9 °F 52.0 °F 51% 30.08 in 10.0 mi WSW 6.9 mph - N/A   Partly Cloudy
5:56 PM 70.0 °F 52.0 °F 53% 30.08 in 10.0 mi West 4.6 mph - N/A   Scattered Clouds
6:56 PM 68.9 °F 52.0 °F 55% 30.09 in 10.0 mi West 3.5 mph - N/A   Partly Cloudy
7:56 PM 68.0 °F 52.9 °F 58% 30.11 in 10.0 mi Calm Calm - N/A   Scattered Clouds
8:56 PM 59.9 °F 54.0 °F 81% 30.12 in 9.0 mi Calm Calm - N/A   Partly Cloudy
9:56 PM 56.8 °F 54.9 °F 93% 30.15 in 7.0 mi Calm Calm - N/A   Scattered Clouds
10:56 PM 55.9 °F 52.9 °F 89% 30.17 in 6.0 mi Calm Calm - N/A   Clear
11:56 PM 54.9 °F 52.9 °F 93% 30.19 in 4.0 mi Calm Calm - N/A   Clear